Flag for Norway Weather past 2 weeks in Hammerfest, Norway

Now
41 °F

Broken clouds.


Feels Like: 39 °F
Forecast: 45 / 56 °F
Wind: 3 mph from Southwest

Location: Hammerfest

Current Time: Jul 8, 2015 at 6:48:04 AM

Latest Report: Jul 8, 2015 at 4:50 AM


Visibility: N/A

Pressure: 29.53 "Hg

Humidity: 93%

Dew point: 39 °F

Location of HammerfestLocation

Historic Weather in Hammerfest — Graph

°F

Hammerfest temperature yesterday

Maximum temperature yesterday: 45 °F (at 9:50 AM)
Minimum temperature yesterday: 41 °F (at 12:50 AM)
Average temperature yesterday: 42 °F

Past Weeks' High & Low Weather Summary

 TemperatureHumidityPressure
High61 °F (Jun 24, 10:50 AM)100% (Jun 23, 4:50 AM)30.24 "Hg (Jun 23, 4:50 AM)
Low37 °F (Jul 6, 12:50 AM)48% (Jul 2, 1:50 PM)29.53 "Hg (Jul 8, 2:50 AM)
Average46 °F80%29.94 "Hg
* Reported Jun 23 4:50 AM — Jul 8 4:50 AM, Hammerfest, Weather by CustomWeather, © 2015

Note: Actual official high and low records may vary slightly from our data, if they occured in-between our weather recording intervals... More about our weather records

Advertising

Hammerfest weather history for previous 24 hours

 ConditionsComfort  
Time TempWeatherWind HumidityBarometerVisibility
4:50 AM
Wed, Jul 8
41 °FBroken clouds.3 mph93%29.53 "HgN/A
3:50 AM39 °FBroken clouds.1 mph100%29.53 "HgN/A
2:50 AM39 °FPartly sunny.2 mph93%29.53 "HgN/A
1:50 AM41 °FDrizzle. Broken clouds.2 mph93%29.56 "Hg6 mi
12:50 AM41 °FDrizzle. Broken clouds.2 mph87%29.56 "HgN/A
11:50 PM
Tue, Jul 7
41 °FBroken clouds.1 mph87%29.56 "HgN/A
10:50 PM41 °FDrizzle. Broken clouds.2 mph93%29.56 "HgN/A
9:50 PM41 °FBroken clouds.6 mph93%29.59 "HgN/A
8:50 PM41 °FBroken clouds.6 mph93%29.59 "HgN/A
7:50 PM43 °FDrizzle. Broken clouds.6 mph87%29.62 "HgN/A
6:50 PM41 °FDrizzle. Broken clouds.5 mph93%29.62 "Hg3 mi
5:50 PM43 °FBroken clouds.8 mph87%29.62 "HgN/A
4:50 PM43 °FLight rain. Broken clouds.8 mph87%29.65 "HgN/A
3:50 PM43 °FLight rain. Broken clouds.8 mph87%29.65 "HgN/A
2:50 PM45 °FBroken clouds.9 mph76%29.68 "HgN/A
1:50 PM45 °FScattered showers. Broken clouds.10 mph81%29.68 "HgN/A
12:50 PM45 °FDrizzle. Broken clouds.13 mph76%29.68 "HgN/A
11:50 AM45 °FPartly sunny.13 mph76%29.71 "HgN/A
10:50 AM45 °FBroken clouds.12 mph76%29.71 "HgN/A
9:50 AM45 °FPartly sunny.13 mph71%29.71 "HgN/A
8:50 AM43 °FPartly sunny.12 mph76%29.74 "HgN/A
7:50 AM43 °FPartly sunny.14 mph71%29.74 "HgN/A
6:50 AM43 °FBroken clouds.17 mph76%29.74 "HgN/A
Weather by CustomWeather, © 2015

See weather overviewHow to use our weather pages